Weather History for KCWA - March, 2013

Change the Weather History Date:

Wednesday, March 27, 2013

  Actual Average Record
Temperature  
Mean Temperature 32 °F -  
Max Temperature 39 °F 43 °F - (-1)
Min Temperature 24 °F 25 °F - (-1)
Degree Days  
Heating Degree Days 34    
Moisture  
Dew Point 22 °F    
Average Humidity 68    
Maximum Humidity 86    
Minimum Humidity 42    
Precipitation  
Precipitation 0.00 in - - ()
Sea Level Pressure  
Sea Level Pressure 30.26 in    
Wind  
Wind Speed 4 mph (NW)    
Max Wind Speed 12 mph    
Max Gust Speed 17 mph    
Visibility 10 miles    
Events      
Averages and records for this station are not official NWS values.
T = Trace of Precipitation, MM = Missing Value Source: NWS Daily Summary

Daily Weather History Graph

Daily Weather History Graph

Search for Another Location

Airport or City:

Trip Planner

Search our weather history database for the weather conditions in past years. The results will help you decide how hot, cold, wet, or windy it might be!

Date:

Astronomy

Mar. 27, 2013 Rise Set
Actual Time 6:48 AM CDT 7:20 PM CDT
Civil Twilight 6:18 AM CDT 7:49 PM CDT
Nautical Twilight 5:44 AM CDT 8:24 PM CDT
Astronomical Twilight 5:08 AM CDT 9:00 PM CDT
Moon 8:07 PM CDT (3/27) 6:37 AM CDT (3/27)
Length of Visible Light 13h 30m
Length of Day
12h 32m
Full, 100% of the Moon is Illuminated
Mar 27
Full
Apr 2
Last Quarter
Apr 10
New
Apr 18
First Quarter
Apr 25
Full

Hourly Weather History & Observations

Time (CDT) Temp. Windchill Dew Point Humidity Pressure Visibility Wind Dir Wind Speed Gust Speed Precip Events Conditions
12:15 AM 32.0 °F - 24.8 °F 75% 30.23 in 10.0 mi Calm Calm - N/A   Overcast
12:35 AM 32.0 °F - 26.6 °F 80% 30.24 in 10.0 mi Calm Calm - N/A   Overcast
12:55 AM 32.0 °F - 26.6 °F 80% 30.24 in 10.0 mi Calm Calm - N/A   Overcast
1:15 AM 32.0 °F 28.7 °F 26.6 °F 80% 30.24 in 10.0 mi NW 3.5 mph - N/A   Overcast
1:35 AM 32.0 °F - 26.6 °F 80% 30.25 in 10.0 mi Calm Calm - N/A   Overcast
2:15 AM 32.0 °F 27.5 °F 26.6 °F 80% 30.24 in 10.0 mi NW 4.6 mph - N/A   Overcast
2:35 AM 30.2 °F 25.4 °F 26.6 °F 86% 30.24 in 10.0 mi NW 4.6 mph - N/A   Overcast
2:55 AM 32.0 °F 27.5 °F 26.6 °F 80% 30.24 in 10.0 mi NW 4.6 mph - N/A   Overcast
3:15 AM 32.0 °F 27.5 °F 26.6 °F 80% 30.24 in 10.0 mi NNW 4.6 mph - N/A   Overcast
3:35 AM 30.2 °F 26.7 °F 26.6 °F 86% 30.24 in 10.0 mi NW 3.5 mph - N/A   Overcast
3:55 AM 30.2 °F 25.4 °F 24.8 °F 80% 30.24 in 10.0 mi NW 4.6 mph - N/A   Overcast
4:15 AM 30.2 °F 25.4 °F 24.8 °F 80% 30.24 in 10.0 mi NW 4.6 mph - N/A   Overcast
4:35 AM 30.2 °F 25.4 °F 23.0 °F 75% 30.24 in 10.0 mi NW 4.6 mph - N/A   Overcast
4:55 AM 30.2 °F 26.7 °F 23.0 °F 75% 30.24 in 10.0 mi NW 3.5 mph - N/A   Overcast
5:15 AM 30.2 °F 25.4 °F 23.0 °F 75% 30.25 in 10.0 mi NW 4.6 mph - N/A   Overcast
5:35 AM 28.4 °F 23.3 °F 23.0 °F 80% 30.25 in 10.0 mi NW 4.6 mph - N/A   Overcast
5:50 AM 26.6 °F 20.0 °F 21.2 °F 80% 30.25 in 10.0 mi NW 5.8 mph - N/A   Mostly Cloudy
6:50 AM 24.8 °F 19.1 °F 19.4 °F 80% 30.26 in 10.0 mi NW 4.6 mph - N/A   Scattered Clouds
7:50 AM 26.6 °F 21.2 °F 19.4 °F 74% 30.28 in 10.0 mi NW 4.6 mph - N/A   Mostly Cloudy
8:50 AM 32.0 °F 26.4 °F 19.4 °F 60% 30.28 in 10.0 mi WNW 5.8 mph - N/A   Overcast
9:50 AM 33.8 °F 27.0 °F 19.4 °F 56% 30.28 in 10.0 mi NW 8.1 mph - N/A   Overcast
10:45 AM 35.6 °F 27.5 °F 19.4 °F 52% 30.28 in 10.0 mi WNW 11.5 mph - N/A   Overcast
11:45 AM 35.6 °F 29.2 °F 19.4 °F 52% 30.28 in 10.0 mi NNW 8.1 mph - N/A   Overcast
12:52 PM 37.4 °F 29.8 °F 19.4 °F 48% 30.28 in 10.0 mi WNW 11.5 mph - N/A   Mostly Cloudy
1:52 PM 37.4 °F 31.4 °F 19.4 °F 48% 30.27 in 10.0 mi WNW 8.1 mph - N/A   Scattered Clouds
2:55 PM 39.2 °F 32.5 °F 17.6 °F 42% 30.26 in 10.0 mi West 10.4 mph 17.3 mph N/A   Scattered Clouds
3:46 PM 37.4 °F 31.4 °F 17.6 °F 45% 30.26 in 10.0 mi West 8.1 mph - N/A   Scattered Clouds
4:45 PM 39.2 °F 33.0 °F 17.6 °F 42% 30.25 in 10.0 mi West 9.2 mph - N/A   Clear
5:45 PM 37.4 °F 31.4 °F 19.4 °F 48% 30.25 in 10.0 mi West 8.1 mph - N/A   Clear
6:45 PM 35.6 °F 29.9 °F 19.4 °F 52% 30.25 in 10.0 mi West 6.9 mph - N/A   Clear
8:45 PM 32.0 °F 25.6 °F 19.4 °F 60% 30.26 in 10.0 mi West 6.9 mph - N/A   Clear
10:15 PM 30.2 °F 23.4 °F 19.4 °F 64% 30.27 in 10.0 mi WNW 6.9 mph - N/A   Clear
10:35 PM 30.2 °F 22.6 °F 21.2 °F 69% 30.27 in 10.0 mi WNW 8.1 mph - N/A   Clear
10:55 PM 30.2 °F 23.4 °F 21.2 °F 69% 30.28 in 10.0 mi NW 6.9 mph - N/A   Clear
11:15 PM 30.2 °F 23.4 °F 21.2 °F 69% 30.27 in 10.0 mi NNW 6.9 mph - N/A   Clear
11:35 PM 30.2 °F 23.4 °F 21.2 °F 69% 30.28 in 10.0 mi NW 6.9 mph - N/A   Clear
11:55 PM 28.4 °F 21.2 °F 21.2 °F 74% 30.28 in 10.0 mi NW 6.9 mph - N/A   Clear